Terminal Aerodrome Forecast
Issued by NWS

Home | Current Version | Previous Version | Text Only | Print | Product List | Glossary On
Versions: 1 2 3 4 5 6 7 8 9 10 11 12 13 14 15 16 17 18 19 20 21 22 23 24 25 26 27 28
000
FTUS46 KMTR 282340
TAFMRY
TAF
KMRY 282340Z 2900/2924 35005KT 6SM FU SCT090
     FM290300 30004KT 5SM BR FU BKN003 OVC006
     FM290500 VRB03KT 1SM BR FU OVC002
     FM291500 VRB03KT 6SM BR OVC003
     FM291630 VRB04KT P6SM FEW008
     FM292000 27010KT P6SM SKC=

USA.gov is the U.S. government's official web portal to all federal, state and local government web resources and services.